29-05-2023, 00:00:05,     30,    1.4,    7.6,   0.00,   0.00, 1023.3,   76.4, -999.0
29-05-2023, 00:00:16,     29,    0.8,    7.6,   0.00,   0.00, 1023.3,   76.6, -999.0
29-05-2023, 00:00:26,     29,    0.9,    7.5,   0.00,   0.00, 1023.3,   76.7, -999.0
29-05-2023, 00:00:35,     29,    0.0,    7.5,   0.00,   0.00, 1023.2,   76.4, -999.0
29-05-2023, 00:00:45,     29,    0.8,    7.5,   0.00,   0.00, 1023.3,   76.9, -999.0
29-05-2023, 00:00:56,     39,    2.3,    7.6,   0.00,   0.00, 1023.3,   77.1, -999.0
29-05-2023, 00:01:05,     26,    1.8,    7.5,   0.00,   0.00, 1023.4,   77.1, -999.0
29-05-2023, 00:01:15,     26,    0.3,    7.6,   0.00,   0.00, 1023.3,   76.9, -999.0
29-05-2023, 00:01:25,     22,    1.2,    7.6,   0.00,   0.00, 1023.3,   77.4, -999.0
29-05-2023, 00:01:35,     26,    2.1,    7.6,   0.00,   0.00, 1023.4,   77.1, -999.0
29-05-2023, 00:01:45,     25,    1.1,    7.6,   0.00,   0.00, 1023.3,   76.7, -999.0
29-05-2023, 00:01:55,     25,    0.3,    7.6,   0.00,   0.00, 1023.2,   76.4, -999.0
29-05-2023, 00:02:05,     46,    2.1,    7.7,   0.00,   0.00, 1023.4,   76.8, -999.0
29-05-2023, 00:02:15,     46,    2.3,    7.7,   0.00,   0.00, 1023.4,   77.0, -999.0
29-05-2023, 00:02:25,      4,    2.0,    7.7,   0.00,   0.00, 1023.4,   77.0, -999.0
29-05-2023, 00:02:35,      3,    0.1,    7.6,   0.00,   0.00, 1023.3,   76.7, -999.0
29-05-2023, 00:02:45,      4,    0.0,    7.5,   0.00,   0.00, 1023.3,   76.8, -999.0
29-05-2023, 00:02:55,     74,    0.0,    7.5,   0.00,   0.00, 1023.3,   76.9, -999.0
29-05-2023, 00:03:05,     62,    0.3,    7.6,   0.00,   0.00, 1023.3,   77.1, -999.0
29-05-2023, 00:03:15,      0,    0.2,    7.5,   0.00,   0.00, 1023.3,   76.8, -999.0
29-05-2023, 00:03:25,      0,    0.0,    7.5,   0.00,   0.00, 1023.2,   76.7, -999.0
29-05-2023, 00:03:35,      0,    0.2,    7.4,   0.00,   0.00, 1023.3,   76.7, -999.0
29-05-2023, 00:03:45,      0,    0.4,    7.5,   0.00,   0.00, 1023.3,   77.2, -999.0
29-05-2023, 00:03:55,      0,    0.6,    7.5,   0.00,   0.00, 1023.3,   77.2, -999.0
29-05-2023, 00:04:05,      0,    0.1,    7.4,   0.00,   0.00, 1023.3,   77.1, -999.0
29-05-2023, 00:04:15,      0,    0.1,    7.4,   0.00,   0.00, 1023.3,   76.8, -999.0
29-05-2023, 00:04:25,      0,    0.4,    7.4,   0.00,   0.00, 1023.3,   77.1, -999.0
29-05-2023, 00:04:35,      0,    0.0,    7.5,   0.00,   0.00, 1023.2,   76.9, -999.0
29-05-2023, 00:04:45,      0,    0.0,    7.5,   0.00,   0.00, 1023.2,   77.1, -999.0
29-05-2023, 00:04:55,      0,    0.4,    7.6,   0.00,   0.00, 1023.3,   77.3, -999.0
29-05-2023, 00:05:05,      0,    0.0,    7.5,   0.00,   0.00, 1023.2,   77.4, -999.0
29-05-2023, 00:05:15,      0,    0.0,    7.5,   0.00,   0.00, 1023.2,   77.4, -999.0
29-05-2023, 00:05:25,      0,    0.0,    7.3,   0.00,   0.00, 1023.2,   77.2, -999.0
29-05-2023, 00:05:35,      0,    0.0,    7.5,   0.00,   0.00, 1023.2,   77.4, -999.0
29-05-2023, 00:05:45,      0,    0.0,    7.4,   0.00,   0.00, 1023.2,   77.5, -999.0
29-05-2023, 00:05:55,      0,    0.0,    7.4,   0.00,   0.00, 1023.3,   77.5, -999.0
29-05-2023, 00:06:05,      3,    0.0,    7.4,   0.00,   0.00, 1023.3,   77.7, -999.0
29-05-2023, 00:06:15,     42,    2.0,    7.6,   0.00,   0.00, 1023.4,   78.0, -999.0
29-05-2023, 00:06:25,     42,    1.0,    7.6,   0.00,   0.00, 1023.4,   77.9, -999.0
29-05-2023, 00:06:34,     36,    1.2,    7.5,   0.00,   0.00, 1023.4,   77.9, -999.0
29-05-2023, 00:06:45,     36,    0.7,    7.5,   0.00,   0.00, 1023.4,   77.7, -999.0
29-05-2023, 00:06:55,     36,    0.5,    7.4,   0.00,   0.00, 1023.4,   77.7, -999.0
29-05-2023, 00:07:04,     36,    0.1,    7.4,   0.00,   0.00, 1023.3,   77.6, -999.0
29-05-2023, 00:07:14,     36,    0.0,    7.3,   0.00,   0.00, 1023.3,   77.7, -999.0
29-05-2023, 00:07:25,     36,    0.0,    7.4,   0.00,   0.00, 1023.3,   77.9, -999.0
29-05-2023, 00:07:35,     36,    0.0,    7.4,   0.00,   0.00, 1023.3,   78.1, -999.0
29-05-2023, 00:07:44,     36,    0.0,    7.5,   0.00,   0.00, 1023.3,   78.1, -999.0
29-05-2023, 00:07:55,     36,    0.0,    7.4,   0.00,   0.00, 1023.3,   78.3, -999.0
29-05-2023, 00:08:05,     36,    0.0,    7.5,   0.00,   0.00, 1023.3,   78.3, -999.0
29-05-2023, 00:08:14,     36,    0.0,    7.5,   0.00,   0.00, 1023.3,   78.4, -999.0
29-05-2023, 00:08:24,     36,    0.0,    7.3,   0.00,   0.00, 1023.3,   78.4, -999.0
29-05-2023, 00:08:35,     36,    0.0,    7.5,   0.00,   0.00, 1023.3,   78.3, -999.0
29-05-2023, 00:08:44,     36,    0.0,    7.4,   0.00,   0.00, 1023.3,   78.2, -999.0
29-05-2023, 00:08:54,     36,    0.0,    7.4,   0.00,   0.00, 1023.3,   78.3, -999.0
29-05-2023, 00:09:04,     36,    0.0,    7.5,   0.00,   0.00, 1023.3,   78.3, -999.0
29-05-2023, 00:09:15,     36,    0.0,    7.3,   0.00,   0.00, 1023.3,   78.5, -999.0
29-05-2023, 00:09:24,     36,    0.0,    7.4,   0.00,   0.00, 1023.3,   78.3, -999.0
29-05-2023, 00:09:34,     36,    0.0,    7.2,   0.00,   0.00, 1023.3,   78.6, -999.0
29-05-2023, 00:09:44,     36,    0.0,    7.2,   0.00,   0.00, 1023.3,   78.6, -999.0
29-05-2023, 00:09:54,     36,    0.0,    7.3,   0.00,   0.00, 1023.3,   78.6, -999.0
29-05-2023, 00:10:04,     35,    0.0,    7.3,   0.00,   0.00, 1023.3,   78.7, -999.0
29-05-2023, 00:10:14,     36,    0.0,    7.3,   0.00,   0.00, 1023.3,   78.7, -999.0
29-05-2023, 00:10:24,     36,    0.0,    7.3,   0.00,   0.00, 1023.3,   78.9, -999.0
29-05-2023, 00:10:34,     36,    0.0,    7.3,   0.00,   0.00, 1023.3,   79.1, -999.0
29-05-2023, 00:10:44,     36,    0.0,    7.3,   0.00,   0.00, 1023.3,   79.3, -999.0
29-05-2023, 00:10:54,     36,    0.0,    7.3,   0.00,   0.00, 1023.3,   79.6, -999.0
29-05-2023, 00:11:04,     36,    0.0,    7.4,   0.00,   0.00, 1023.3,   79.9, -999.0
29-05-2023, 00:11:14,     36,    0.0,    7.3,   0.00,   0.00, 1023.3,   79.9, -999.0
29-05-2023, 00:11:24,     36,    0.0,    7.4,   0.00,   0.00, 1023.3,   79.9, -999.0
29-05-2023, 00:11:34,     36,    0.0,    7.3,   0.00,   0.00, 1023.3,   79.8, -999.0
29-05-2023, 00:11:44,     36,    0.0,    7.3,   0.00,   0.00, 1023.3,   79.5, -999.0
29-05-2023, 00:11:54,     36,    0.0,    7.3,   0.00,   0.00, 1023.3,   79.7, -999.0
29-05-2023, 00:12:04,     36,    0.0,    7.2,   0.00,   0.00, 1023.3,   79.6, -999.0
29-05-2023, 00:12:14,     36,    0.0,    7.3,   0.00,   0.00, 1023.3,   79.6, -999.0
29-05-2023, 00:12:24,     36,    0.0,    7.1,   0.00,   0.00, 1023.3,   79.7, -999.0
29-05-2023, 00:12:34,     36,    0.0,    7.2,   0.00,   0.00, 1023.3,   79.8, -999.0
29-05-2023, 00:12:44,     36,    0.0,    7.1,   0.00,   0.00, 1023.3,   80.0, -999.0
29-05-2023, 00:12:54,     36,    0.0,    7.1,   0.00,   0.00, 1023.3,   80.2, -999.0
29-05-2023, 00:13:04,     36,    0.0,    7.1,   0.00,   0.00, 1023.3,   80.4, -999.0
29-05-2023, 00:13:14,     36,    0.0,    7.1,   0.00,   0.00, 1023.3,   80.6, -999.0
29-05-2023, 00:13:24,     36,    0.0,    7.3,   0.00,   0.00, 1023.3,   80.8, -999.0
29-05-2023, 00:13:34,     36,    0.0,    7.1,   0.00,   0.00, 1023.3,   80.9, -999.0
29-05-2023, 00:13:43,     36,    0.0,    7.1,   0.00,   0.00, 1023.3,   81.0, -999.0
29-05-2023, 00:13:54,     36,    0.3,    7.2,   0.00,   0.00, 1023.4,   81.3, -999.0
29-05-2023, 00:14:04,     36,    0.0,    7.1,   0.00,   0.00, 1023.3,   81.4, -999.0
29-05-2023, 00:14:14,     36,    0.0,    7.1,   0.00,   0.00, 1023.3,   81.5, -999.0
29-05-2023, 00:14:23,     36,    0.0,    7.2,   0.00,   0.00, 1023.3,   81.6, -999.0
29-05-2023, 00:14:34,     36,    0.0,    7.0,   0.00,   0.00, 1023.3,   81.8, -999.0
29-05-2023, 00:14:44,     36,    0.0,    7.1,   0.00,   0.00, 1023.3,   82.0, -999.0
29-05-2023, 00:14:53,     36,    0.0,    7.1,   0.00,   0.00, 1023.3,   82.0, -999.0
29-05-2023, 00:15:03,     36,    0.0,    7.1,   0.00,   0.00, 1023.3,   82.1, -999.0
29-05-2023, 00:15:14,     36,    0.0,    7.1,   0.00,   0.00, 1023.3,   82.3, -999.0
29-05-2023, 00:15:24,     36,    0.0,    7.1,   0.00,   0.00, 1023.3,   82.6, -999.0
29-05-2023, 00:15:33,     36,    0.0,    7.1,   0.00,   0.00, 1023.3,   82.9, -999.0
29-05-2023, 00:15:43,     36,    0.0,    7.1,   0.00,   0.00, 1023.3,   83.0, -999.0
29-05-2023, 00:15:54,     36,    0.0,    7.0,   0.00,   0.00, 1023.3,   83.1, -999.0
29-05-2023, 00:16:03,     36,    0.0,    7.1,   0.00,   0.00, 1023.3,   83.1, -999.0
29-05-2023, 00:16:13,     36,    0.0,    7.0,   0.00,   0.00, 1023.3,   83.0, -999.0
29-05-2023, 00:16:23,     36,    0.0,    7.1,   0.00,   0.00, 1023.3,   83.0, -999.0
29-05-2023, 00:16:34,     36,    0.0,    7.0,   0.00,   0.00, 1023.3,   83.1, -999.0
29-05-2023, 00:16:43,     36,    0.0,    7.0,   0.00,   0.00, 1023.3,   83.2, -999.0
29-05-2023, 00:16:53,     36,    0.0,    7.0,   0.00,   0.00, 1023.3,   83.3, -999.0
29-05-2023, 00:17:03,     36,    0.0,    6.9,   0.00,   0.00, 1023.3,   83.4, -999.0
29-05-2023, 00:17:13,     36,    0.0,    6.9,   0.00,   0.00, 1023.3,   83.6, -999.0
29-05-2023, 00:17:23,     36,    0.0,    7.0,   0.00,   0.00, 1023.3,   83.9, -999.0
29-05-2023, 00:17:33,     36,    0.0,    6.9,   0.00,   0.00, 1023.3,   84.0, -999.0
29-05-2023, 00:17:43,     36,    0.0,    6.9,   0.00,   0.00, 1023.3,   84.3, -999.0
29-05-2023, 00:17:53,     39,    0.0,    6.9,   0.00,   0.00, 1023.3,   84.4, -999.0
29-05-2023, 00:18:03,     36,    0.0,    6.9,   0.00,   0.00, 1023.3,   84.7, -999.0
29-05-2023, 00:18:13,     36,    0.0,    6.8,   0.00,   0.00, 1023.3,   85.0, -999.0
29-05-2023, 00:18:23,     36,    0.0,    6.9,   0.00,   0.00, 1023.3,   85.2, -999.0
29-05-2023, 00:18:33,     36,    0.0,    6.9,   0.00,   0.00, 1023.3,   85.5, -999.0
29-05-2023, 00:18:43,     36,    0.0,    7.0,   0.00,   0.00, 1023.3,   85.6, -999.0
29-05-2023, 00:18:53,     36,    0.0,    6.9,   0.00,   0.00, 1023.3,   85.8, -999.0
29-05-2023, 00:19:03,     36,    0.0,    6.9,   0.00,   0.00, 1023.3,   85.9, -999.0
29-05-2023, 00:19:13,     36,    0.0,    7.0,   0.00,   0.00, 1023.3,   85.9, -999.0
29-05-2023, 00:19:23,     36,    0.0,    6.9,   0.00,   0.00, 1023.3,   86.2, -999.0
29-05-2023, 00:19:33,     36,    0.0,    6.9,   0.00,   0.00, 1023.3,   86.4, -999.0
29-05-2023, 00:19:43,     36,    0.0,    6.9,   0.00,   0.00, 1023.3,   86.5, -999.0
29-05-2023, 00:19:53,     36,    0.0,    7.0,   0.00,   0.00, 1023.3,   86.7, -999.0
29-05-2023, 00:20:03,     36,    0.0,    6.9,   0.00,   0.00, 1023.3,   86.8, -999.0
29-05-2023, 00:20:13,     36,    0.0,    7.0,   0.00,   0.00, 1023.4,   86.8, -999.0
29-05-2023, 00:20:23,     37,    0.0,    6.9,   0.00,   0.00, 1023.3,   87.1, -999.0
29-05-2023, 00:20:33,     36,    0.0,    6.9,   0.00,   0.00, 1023.4,   87.3, -999.0
29-05-2023, 00:20:43,     35,    0.0,    7.0,   0.00,   0.00, 1023.4,   87.3, -999.0
29-05-2023, 00:20:53,     36,    0.0,    7.0,   0.00,   0.00, 1023.4,   87.4, -999.0
29-05-2023, 00:21:03,     36,    0.0,    6.9,   0.00,   0.00, 1023.4,   87.3, -999.0
29-05-2023, 00:21:13,     36,    0.0,    6.8,   0.00,   0.00, 1023.3,   87.1, -999.0
29-05-2023, 00:21:23,     36,    0.0,    6.9,   0.00,   0.00, 1023.3,   87.0, -999.0
29-05-2023, 00:21:32,     36,    0.0,    6.9,   0.00,   0.00, 1023.3,   87.0, -999.0
29-05-2023, 00:21:43,     36,    0.0,    6.8,   0.00,   0.00, 1023.3,   87.3, -999.0
29-05-2023, 00:21:53,     36,    0.0,    6.9,   0.00,   0.00, 1023.3,   87.4, -999.0
29-05-2023, 00:22:03,     38,    0.0,    6.9,   0.00,   0.00, 1023.3,   87.6, -999.0
29-05-2023, 00:22:12,     36,    0.0,    6.9,   0.00,   0.00, 1023.3,   87.8, -999.0
29-05-2023, 00:22:23,     36,    0.0,    6.9,   0.00,   0.00, 1023.3,   87.9, -999.0
29-05-2023, 00:22:33,     36,    0.0,    6.8,   0.00,   0.00, 1023.3,   88.1, -999.0
29-05-2023, 00:22:42,     36,    0.0,    6.8,   0.00,   0.00, 1023.3,   88.2, -999.0
29-05-2023, 00:22:53,     36,    0.0,    6.8,   0.00,   0.00, 1023.3,   88.2, -999.0
29-05-2023, 00:23:03,     36,    0.0,    6.8,   0.00,   0.00, 1023.3,   88.2, -999.0
29-05-2023, 00:23:12,     36,    0.0,    6.8,   0.00,   0.00, 1023.3,   88.4, -999.0
29-05-2023, 00:23:22,     36,    0.0,    6.8,   0.00,   0.00, 1023.3,   88.7, -999.0
29-05-2023, 00:23:33,     36,    0.0,    6.8,   0.00,   0.00, 1023.4,   88.8, -999.0
29-05-2023, 00:23:43,     36,    0.0,    6.7,   0.00,   0.00, 1023.3,   89.2, -999.0
29-05-2023, 00:23:52,     36,    0.0,    6.8,   0.00,   0.00, 1023.3,   89.5, -999.0
29-05-2023, 00:24:02,     36,    0.0,    6.8,   0.00,   0.00, 1023.3,   89.7, -999.0
29-05-2023, 00:24:13,     36,    0.0,    6.8,   0.00,   0.00, 1023.3,   89.8, -999.0
29-05-2023, 00:24:22,     36,    0.0,    6.8,   0.00,   0.00, 1023.3,   90.1, -999.0
29-05-2023, 00:24:32,     36,    0.0,    6.8,   0.00,   0.00, 1023.3,   90.2, -999.0
29-05-2023, 00:24:42,     36,    0.0,    6.8,   0.00,   0.00, 1023.3,   90.6, -999.0
29-05-2023, 00:24:52,     36,    0.0,    6.8,   0.00,   0.00, 1023.3,   90.6, -999.0
29-05-2023, 00:25:02,     36,    0.0,    6.8,   0.00,   0.00, 1023.3,   90.7, -999.0
29-05-2023, 00:25:12,     38,    0.0,    6.8,   0.00,   0.00, 1023.3,   90.6, -999.0
29-05-2023, 00:25:22,     36,    0.0,    6.7,   0.00,   0.00, 1023.3,   90.7, -999.0
29-05-2023, 00:25:32,     36,    0.0,    6.8,   0.00,   0.00, 1023.3,   90.8, -999.0
29-05-2023, 00:25:42,     36,    0.0,    6.8,   0.00,   0.00, 1023.3,   91.0, -999.0
29-05-2023, 00:25:52,     36,    0.0,    6.7,   0.00,   0.00, 1023.3,   90.9, -999.0
29-05-2023, 00:26:02,     36,    0.0,    6.7,   0.00,   0.00, 1023.3,   91.2, -999.0
29-05-2023, 00:26:12,     36,    0.0,    6.7,   0.00,   0.00, 1023.3,   91.5, -999.0
29-05-2023, 00:26:22,     36,    0.0,    6.7,   0.00,   0.00, 1023.3,   91.6, -999.0
29-05-2023, 00:26:32,     36,    0.0,    6.8,   0.00,   0.00, 1023.3,   91.8, -999.0
29-05-2023, 00:26:42,     36,    0.0,    6.8,   0.00,   0.00, 1023.4,   92.2, -999.0
29-05-2023, 00:26:52,     36,    0.0,    6.6,   0.00,   0.00, 1023.3,   92.4, -999.0
29-05-2023, 00:27:02,     36,    0.0,    6.7,   0.00,   0.00, 1023.3,   92.7, -999.0
29-05-2023, 00:27:12,     36,    0.0,    6.8,   0.00,   0.00, 1023.3,   92.7, -999.0
29-05-2023, 00:27:22,     36,    0.1,    6.8,   0.00,   0.00, 1023.3,   93.3, -999.0
29-05-2023, 00:27:32,     36,    0.0,    6.6,   0.00,   0.00, 1023.3,   93.6, -999.0
29-05-2023, 00:27:42,     36,    0.0,    6.7,   0.00,   0.00, 1023.3,   93.6, -999.0
29-05-2023, 00:27:52,     36,    0.0,    6.7,   0.00,   0.00, 1023.3,   93.6, -999.0
29-05-2023, 00:28:02,     36,    0.0,    6.7,   0.00,   0.00, 1023.3,   93.7, -999.0
29-05-2023, 00:28:12,     35,    0.0,    6.6,   0.00,   0.00, 1023.3,   93.7, -999.0
29-05-2023, 00:28:22,     36,    0.0,    6.6,   0.00,   0.00, 1023.3,   93.7, -999.0
29-05-2023, 00:28:32,     36,    0.0,    6.7,   0.00,   0.00, 1023.3,   93.7, -999.0
29-05-2023, 00:28:42,     36,    0.0,    6.7,   0.00,   0.00, 1023.3,   93.7, -999.0
29-05-2023, 00:28:52,     36,    0.0,    6.6,   0.00,   0.00, 1023.3,   93.9, -999.0
29-05-2023, 00:29:02,     36,    0.0,    6.7,   0.00,   0.00, 1023.3,   94.7, -999.0
29-05-2023, 00:29:12,     36,    0.0,    6.7,   0.00,   0.00, 1023.3,   95.0, -999.0
29-05-2023, 00:29:21,     36,    0.0,    6.6,   0.00,   0.00, 1023.3,   95.1, -999.0
29-05-2023, 00:29:32,     36,    0.0,    6.7,   0.00,   0.00, 1023.3,   95.4, -999.0
29-05-2023, 00:29:42,     36,    0.0,    6.6,   0.00,   0.00, 1023.3,   95.8, -999.0
29-05-2023, 00:29:52,     36,    0.0,    6.6,   0.00,   0.00, 1023.3,   96.0, -999.0
29-05-2023, 00:30:01,     36,    0.0,    6.6,   0.00,   0.00, 1023.3,   96.2, -999.0
29-05-2023, 00:30:12,     36,    0.0,    6.7,   0.00,   0.00, 1023.3,   96.5, -999.0
29-05-2023, 00:30:22,     37,    0.3,    6.7,   0.00,   0.00, 1023.4,   97.0, -999.0
29-05-2023, 00:30:31,     36,    0.0,    6.7,   0.00,   0.00, 1023.3,   97.1, -999.0
29-05-2023, 00:30:41,     36,    0.0,    6.7,   0.00,   0.00, 1023.3,   97.8, -999.0
29-05-2023, 00:30:52,     36,    0.0,    6.7,   0.00,   0.00, 1023.3,   97.9, -999.0
29-05-2023, 00:31:01,     37,    0.2,    6.6,   0.00,   0.00, 1023.3,   98.1, -999.0
29-05-2023, 00:31:11,     36,    0.6,    6.8,   0.00,   0.00, 1023.4,   98.3, -999.0
29-05-2023, 00:31:21,     36,    0.4,    6.8,   0.00,   0.00, 1023.4,   97.9, -999.0
29-05-2023, 00:31:32,     37,    0.0,    6.7,   0.00,   0.00, 1023.3,   97.2, -999.0
29-05-2023, 00:31:41,     36,    0.0,    6.6,   0.00,   0.00, 1023.3,   97.4, -999.0
29-05-2023, 00:31:51,     37,    0.0,    6.6,   0.00,   0.00, 1023.3,   97.7, -999.0
29-05-2023, 00:32:01,     36,    0.0,    6.6,   0.00,   0.00, 1023.3,   97.8, -999.0
29-05-2023, 00:32:11,     36,    0.0,    6.6,   0.00,   0.00, 1023.3,   97.8, -999.0
29-05-2023, 00:32:21,     36,    0.0,    6.7,   0.00,   0.00, 1023.3,   97.7, -999.0
29-05-2023, 00:32:31,     36,    0.0,    6.7,   0.00,   0.00, 1023.3,   97.7, -999.0
29-05-2023, 00:32:41,     36,    0.1,    6.7,   0.00,   0.00, 1023.4,   98.2, -999.0
29-05-2023, 00:32:51,     36,    0.0,    6.6,   0.00,   0.00, 1023.3,   98.1, -999.0
29-05-2023, 00:33:01,     36,    0.0,    6.6,   0.00,   0.00, 1023.3,   98.4, -999.0
29-05-2023, 00:33:11,     36,    0.1,    6.7,   0.00,   0.00, 1023.3,   98.6, -999.0
29-05-2023, 00:33:21,     36,    0.0,    6.7,   0.00,   0.00, 1023.3,   98.7, -999.0
29-05-2023, 00:33:31,     36,    0.0,    6.6,   0.00,   0.00, 1023.3,   98.8, -999.0
29-05-2023, 00:33:41,     36,    0.0,    6.6,   0.00,   0.00, 1023.3,   98.6, -999.0
29-05-2023, 00:33:51,     36,    0.0,    6.6,   0.00,   0.00, 1023.3,   98.7, -999.0
29-05-2023, 00:34:01,     36,    0.0,    6.6,   0.00,   0.00, 1023.3,   98.7, -999.0
29-05-2023, 00:34:11,     33,    0.0,    6.5,   0.00,   0.00, 1023.3,   98.6, -999.0
29-05-2023, 00:34:21,     36,    0.0,    6.6,   0.00,   0.00, 1023.3,   98.7, -999.0
29-05-2023, 00:34:31,     38,    0.0,    6.6,   0.00,   0.00, 1023.3,   98.7, -999.0
29-05-2023, 00:34:41,     36,    0.0,    6.6,   0.00,   0.00, 1023.3,   98.7, -999.0
29-05-2023, 00:34:51,     37,    0.2,    6.6,   0.00,   0.00, 1023.3,   98.8, -999.0
29-05-2023, 00:35:01,     36,    0.5,    6.7,   0.00,   0.00, 1023.4,   99.0, -999.0
29-05-2023, 00:35:11,     36,    0.5,    6.7,   0.00,   0.00, 1023.4,   99.0, -999.0
29-05-2023, 00:35:21,     36,    0.0,    6.5,   0.00,   0.00, 1023.3,   98.7, -999.0
29-05-2023, 00:35:31,     36,    0.0,    6.6,   0.00,   0.00, 1023.3,   98.7, -999.0
29-05-2023, 00:35:41,     36,    0.0,    6.5,   0.00,   0.00, 1023.3,   98.6, -999.0
29-05-2023, 00:35:51,     36,    0.0,    6.5,   0.00,   0.00, 1023.3,   98.7, -999.0
29-05-2023, 00:36:01,     36,    0.0,    6.5,   0.00,   0.00, 1023.3,   98.7, -999.0
29-05-2023, 00:36:11,     36,    0.0,    6.5,   0.00,   0.00, 1023.3,   98.7, -999.0
29-05-2023, 00:36:21,     36,    0.0,    6.6,   0.00,   0.00, 1023.3,   98.7, -999.0
29-05-2023, 00:36:31,     36,    0.0,    6.6,   0.00,   0.00, 1023.3,   98.7, -999.0
29-05-2023, 00:36:41,     37,    0.0,    6.6,   0.00,   0.00, 1023.3,   98.7, -999.0
29-05-2023, 00:36:51,     37,    0.0,    6.6,   0.00,   0.00, 1023.3,   98.6, -999.0
29-05-2023, 00:37:01,     36,    0.0,    6.6,   0.00,   0.00, 1023.3,   98.6, -999.0
29-05-2023, 00:37:10,     36,    0.0,    6.5,   0.00,   0.00, 1023.3,   98.7, -999.0
29-05-2023, 00:37:21,     37,    0.0,    6.5,   0.00,   0.00, 1023.3,   98.7, -999.0
29-05-2023, 00:37:31,     36,    0.0,    6.5,   0.00,   0.00, 1023.3,   98.8, -999.0
29-05-2023, 00:37:40,     36,    0.0,    6.5,   0.00,   0.00, 1023.3,   98.6, -999.0
29-05-2023, 00:37:50,     36,    0.0,    6.4,   0.00,   0.00, 1023.3,   98.7, -999.0
29-05-2023, 00:38:01,     36,    0.0,    6.5,   0.00,   0.00, 1023.3,   98.7, -999.0
29-05-2023, 00:38:11,     36,    0.0,    6.5,   0.00,   0.00, 1023.3,   98.8, -999.0
29-05-2023, 00:38:20,     36,    0.0,    6.5,   0.00,   0.00, 1023.3,   98.7, -999.0
29-05-2023, 00:38:30,     36,    0.0,    6.5,   0.00,   0.00, 1023.3,   98.7, -999.0
29-05-2023, 00:38:41,     36,    0.0,    6.4,   0.00,   0.00, 1023.3,   98.7, -999.0
29-05-2023, 00:38:50,     37,    0.0,    6.5,   0.00,   0.00, 1023.3,   98.7, -999.0
29-05-2023, 00:39:00,     36,    0.0,    6.5,   0.00,   0.00, 1023.3,   98.7, -999.0
29-05-2023, 00:39:10,     36,    0.0,    6.4,   0.00,   0.00, 1023.3,   98.7, -999.0
29-05-2023, 00:39:20,     36,    0.0,    6.4,   0.00,   0.00, 1023.3,   98.6, -999.0
29-05-2023, 00:39:30,     36,    0.0,    6.4,   0.00,   0.00, 1023.3,   98.7, -999.0
29-05-2023, 00:39:40,     36,    0.0,    6.4,   0.00,   0.00, 1023.3,   98.6, -999.0
29-05-2023, 00:39:50,     36,    0.0,    6.5,   0.00,   0.00, 1023.3,   98.7, -999.0
29-05-2023, 00:40:00,     37,    0.0,    6.4,   0.00,   0.00, 1023.3,   98.7, -999.0
29-05-2023, 00:40:10,     36,    0.0,    6.4,   0.00,   0.00, 1023.3,   98.7, -999.0
29-05-2023, 00:40:20,     36,    0.0,    6.3,   0.00,   0.00, 1023.3,   98.7, -999.0
29-05-2023, 00:40:30,     36,    0.0,    6.4,   0.00,   0.00, 1023.3,   98.7, -999.0
29-05-2023, 00:40:40,     36,    0.0,    6.4,   0.00,   0.00, 1023.3,   98.7, -999.0
29-05-2023, 00:40:50,     36,    0.0,    6.4,   0.00,   0.00, 1023.3,   98.6, -999.0
29-05-2023, 00:41:00,     36,    0.0,    6.4,   0.00,   0.00, 1023.3,   98.6, -999.0
29-05-2023, 00:41:10,     36,    0.0,    6.4,   0.00,   0.00, 1023.3,   98.7, -999.0
29-05-2023, 00:41:20,     36,    0.0,    6.4,   0.00,   0.00, 1023.3,   98.7, -999.0
29-05-2023, 00:41:30,     36,    0.0,    6.3,   0.00,   0.00, 1023.3,   98.7, -999.0
29-05-2023, 00:41:40,     36,    0.0,    6.4,   0.00,   0.00, 1023.3,   98.7, -999.0
29-05-2023, 00:41:50,     36,    0.0,    6.4,   0.00,   0.00, 1023.3,   98.6, -999.0
29-05-2023, 00:42:00,     36,    0.0,    6.3,   0.00,   0.00, 1023.3,   98.7, -999.0
29-05-2023, 00:42:10,     37,    0.0,    6.3,   0.00,   0.00, 1023.3,   98.7, -999.0
29-05-2023, 00:42:20,     36,    0.0,    6.5,   0.00,   0.00, 1023.3,   98.6, -999.0
29-05-2023, 00:42:30,     36,    0.0,    6.6,   0.00,   0.00, 1023.3,   98.6, -999.0
29-05-2023, 00:42:40,     36,    0.0,    6.5,   0.00,   0.00, 1023.3,   98.7, -999.0
29-05-2023, 00:42:50,     36,    0.0,    6.4,   0.00,   0.00, 1023.3,   98.7, -999.0
29-05-2023, 00:43:00,     36,    0.0,    6.4,   0.00,   0.00, 1023.3,   98.7, -999.0
29-05-2023, 00:43:10,     36,    0.0,    6.3,   0.00,   0.00, 1023.3,   98.7, -999.0
29-05-2023, 00:43:20,     37,    0.0,    6.4,   0.00,   0.00, 1023.3,   98.7, -999.0
29-05-2023, 00:43:30,     36,    0.0,    6.4,   0.00,   0.00, 1023.3,   98.7, -999.0
29-05-2023, 00:43:40,     36,    0.0,    6.4,   0.00,   0.00, 1023.3,   98.7, -999.0
29-05-2023, 00:43:50,     36,    0.0,    6.4,   0.00,   0.00, 1023.3,   98.6, -999.0
29-05-2023, 00:44:00,     36,    0.0,    6.4,   0.00,   0.00, 1023.3,   98.7, -999.0
29-05-2023, 00:44:10,     36,    0.0,    6.5,   0.00,   0.00, 1023.3,   98.8, -999.0
29-05-2023, 00:44:20,     35,    0.0,    6.4,   0.00,   0.00, 1023.3,   98.7, -999.0
29-05-2023, 00:44:30,     36,    0.0,    6.4,   0.00,   0.00, 1023.3,   98.7, -999.0
29-05-2023, 00:44:40,     36,    0.0,    6.4,   0.00,   0.00, 1023.3,   98.6, -999.0
29-05-2023, 00:44:50,     36,    0.0,    6.4,   0.00,   0.00, 1023.3,   98.7, -999.0
29-05-2023, 00:44:59,     36,    0.0,    6.4,   0.00,   0.00, 1023.3,   98.6, -999.0
29-05-2023, 00:45:10,     36,    0.0,    6.3,   0.00,   0.00, 1023.3,   98.7, -999.0
29-05-2023, 00:45:20,     36,    0.0,    6.3,   0.00,   0.00, 1023.3,   98.7, -999.0
29-05-2023, 00:45:29,     35,    0.0,    6.4,   0.00,   0.00, 1023.3,   98.7, -999.0
29-05-2023, 00:45:39,     36,    0.0,    6.4,   0.00,   0.00, 1023.3,   98.7, -999.0
29-05-2023, 00:45:50,     36,    0.0,    6.4,   0.00,   0.00, 1023.3,   98.7, -999.0
29-05-2023, 00:45:59,     36,    0.0,    6.5,   0.00,   0.00, 1023.3,   98.7, -999.0
29-05-2023, 00:46:09,     36,    0.0,    6.3,   0.00,   0.00, 1023.3,   98.7, -999.0
29-05-2023, 00:46:19,     36,    0.0,    6.3,   0.00,   0.00, 1023.3,   98.7, -999.0
29-05-2023, 00:46:30,     36,    0.0,    6.4,   0.00,   0.00, 1023.3,   98.7, -999.0
29-05-2023, 00:46:39,     36,    0.0,    6.3,   0.00,   0.00, 1023.3,   98.7, -999.0
29-05-2023, 00:46:49,     36,    0.0,    6.4,   0.00,   0.00, 1023.3,   98.8, -999.0